Location: Newark
(49.8969°N, 3.3422°E)
Time: 20:15:43
(UTC+00:00)

A-11 Canister half - Pass Details

Date: 23 January 2020
Orbit: 1517 x 1683 km, 47.2° (Epoch: 26 February)

Event Time Altitude Azimuth Distance (km) Brightness Sun altitude
Exits shadow 05:45:58 22° 272° (W) 2,853 9.8 -16.8°
Maximum altitude 05:51:40 46° 212° (SSW) 1,973 9.4 -15.9°
Drops below altitude 10° 06:00:23 10° 144° (SE) 3,727 11.8 -14.5°
Sets 06:03:38 0° 138° (SE) 4,729 12.5 -14.0°
